Tracking 18980 objects as of 20-Feb-2018
HD Live streaming from Space Station
objects crossing your sky now

FENGYUN 1C DEB

Track FENGYUN 1C DEB now!
10-day predictions


NORAD ID: 32194
Int'l Code: 1999-025CUQ
Perigee: 677.8 km
Apogee: 789.8 km
Inclination: 99.1 °
Period: 99.3 minutes
Semi major axis: 7104 km
RCS: 0.0086 m2 (small)
Launch date: May 10, 1999
Source: People's Republic of China (PRC)
Launch site: Taiyaun Space Center, China (TSC)

Note: This is SATELLITE DEBRIS
aabbcc
Your satellite tracking list
Your tracking list is empty




NASA's NSSDC Master Catalog

Two Line Element Set (TLE):
1 32194U 99025CUQ 18048.01165177 +.00001211 +00000-0 +31648-3 0  9993
2 32194 099.0930 339.7081 0078836 304.0228 055.3493 14.49701793555934
Source of the keplerian elements: AFSPC